Regional Weather Roundup
Issued by NWS

Home | Current Version | Previous Version | Text Only | Print | Product List | Glossary Off
Versions: 1 2 3 4 5 6 7 8 9 10 11 12 13 14 15 16 17 18 19 20 21 22 23 24 25 26 27 28 29 30 31 32 33 34 35 36 37 38 39 40 41 42 43 44 45 46 47 48 49 50

000
ASUS43 KOAX 191002
RWRNE

WEATHER ROUNDUP FOR NEBRASKA
NATIONAL WEATHER SERVICE OMAHA NE
400 AM CST SUN NOV 19 2017

NOTES: SATELLITE DATA IS BEING USED TO AUGMENT CLOUD COVER ABOVE
       12000 FEET.
       "FAIR" INDICATES FEW OR NO CLOUDS BELOW 12,000 FEET WITH NO
       SIGNIFICANT WEATHER AND/OR OBSTRUCTIONS TO VISIBILITY.


NEZ001>004-019>022-054>056-191100-
NEBRASKA PANHANDLE

CITY           SKY/WX    TMP DP  RH WIND       PRES   REMARKS
SCOTTSBLUFF    CLOUDY    22  12  65 CALM      30.17F
ALLIANCE       CLOUDY    15  12  88 W9        30.15F WCI   3
CHADRON        CLEAR     24  18  77 CALM      30.13F
GORDON         FAIR      28  20  72 CALM      30.12F
KIMBALL        CLOUDY    23  17  75 SW7       30.17F WCI  15
SIDNEY         CLOUDY    22  15  75 W8        30.18F WCI  12
$$

NEZ057>060-069>072-079>082-191100-
SOUTHWEST NEBRASKA

CITY           SKY/WX    TMP DP  RH WIND       PRES   REMARKS
NORTH PLATTE   CLEAR     18  15  88 CALM      30.20F
IMPERIAL       CLOUDY    22  15  75 W7        30.21F WCI  13
LEXINGTON      CLEAR     25  20  80 W7        30.22S WCI  17
MCCOOK         CLEAR     23  20  88 SW8       30.23F WCI  14
OGALLALA       CLOUDY    23  18  83 CALM      30.20F
$$

NEZ005>010-023>029-035>040-094-191100-
NORTH CENTRAL NEBRASKA

CITY           SKY/WX    TMP DP  RH WIND       PRES   REMARKS
VALENTINE      CLEAR     22  18  85 SW7       30.14F WCI  13
AINSWORTH      CLEAR     25  20  84 W7        30.14F WCI  17
BROKEN BOW     CLEAR     30  20  66 W6        30.17F WCI  24
O`NEILL        CLEAR     22  22  98 S3        30.15F
ORD            CLEAR     20  17  88 SW6       30.17F WCI  12
THEDFORD       CLEAR     25  20  80 W6        30.16F WCI  18
$$

NEZ041-046>049-061>064-073>077-083>087-191100-
SOUTH CENTRAL NEBRASKA

CITY           SKY/WX    TMP DP  RH WIND       PRES   REMARKS
GRAND ISLAND   CLEAR     27  24  89 W6        30.21S WCI  20
AURORA         CLEAR     26  22  85 NW3       30.21F
HASTINGS       CLEAR     29  20  69 W8        30.22S WCI  21
HEBRON         PTCLDY    26  22  86 CALM      30.24S
HOLDREGE       CLEAR     26  20  76 NW6       30.22S WCI  20
KEARNEY        CLEAR     30  22  72 W3        30.22S
$$

NEZ011>018-030>034-042>045-191100-
NORTHEAST NEBRASKA

CITY           SKY/WX    TMP DP  RH WIND       PRES   REMARKS
NORFOLK        CLEAR     19  17  92 S3        30.17F
ALBION         CLEAR     20  18  91 CALM      30.19F
BLAIR          CLEAR     27  21  79 W7        30.20F WCI  19
COLUMBUS       CLEAR     18  15  88 CALM      30.22F
FREMONT        CLEAR     23  20  87 NW5       30.22F WCI  17
TEKAMAH        CLEAR     26  20  77 W8        30.21F WCI  18
WAYNE          CLEAR     19  17  91 S5        30.17F WCI  13
$$

NEZ050>053-065>068-078-088>093-191100-
SOUTHEAST NEBRASKA

CITY           SKY/WX    TMP DP  RH WIND       PRES   REMARKS
LINCOLN        CLEAR     26  22  84 SW3       30.25S
OMAHA EPPLEY   CLEAR     26  19  74 N5        30.23S WCI  20
BEATRICE       CLEAR     24  22  92 CALM      30.25S
FALLS CITY     CLEAR     28  23  81 W8        30.24S WCI  20
NEBRASKA CITY  CLEAR     28  23  81 CALM      30.23R
PLATTSMOUTH    CLEAR     27  22  84 W7        30.22S WCI  19
$$

NEZ044-045-051>053-067-191100-
OMAHA AREA

CITY           SKY/WX    TMP DP  RH WIND       PRES   REMARKS
OMAHA EPPLEY   CLEAR     26  19  74 N5        30.23S WCI  20
BLAIR          CLEAR     27  21  79 W7        30.20F WCI  19
FREMONT        CLEAR     23  20  87 NW5       30.22F WCI  17
MILLARD        CLEAR     29  23  79 NW6       30.23F WCI  23
OFFUTT AFB     CLEAR     25  20  81 NW9       30.21F WCI  16
PLATTSMOUTH    CLEAR     27  22  84 W7        30.22S WCI  19
WAHOO          FAIR      25  20  83 CALM      30.22F
$$



USA.gov is the U.S. government's official web portal to all federal, state and local government web resources and services.